Погода в Одессе

Погода в Одессе : погода сейчас, прогноз погоды и архив. Всё, что Вы хотите узнать о погоде в Одессе!

Хотите узнать прогноз погоды в Одессе? Тогда Вам сюда: Погода в Одессе

Поиск расширенной информации на нашем сайте:

Другие новости

Новости СМИ2

Главная страница сайта

Новости сайта

02.10.2013

Напоминаем, что на нашем новом сайте вы можете получить высокодетализированные прогнозы погоды по пунктам России, СНГ и мира (включающие важные для авиации метеовеличины, такие как направление и скорость ветра, видимость, явления погоды, количество и форма облачности, нижняя и верхняя граница облачности), а также ознакомиться с разнообразными материалами по авиационной метеорологии и подборкой полезных ссылок на эту тему.

Сайт Метеоцентр.Азия посвящён разработке технологий оптимизации авиаметеорологического обслуживания, включая проектирование и перспективное создание нескольких автоматизированных авиаметеорологических систем:
- система выпуска высокодетальных прогностических карт явлений погоды для нижнего воздушного пространства по России и ближнему зарубежью;
- система верификации прогнозов TAF (выпускаемых синоптиками официальных АМСГ РФ и ближнего зарубежья) и AUTOTAF (выпускаемых сайтом Метеоцентр.Азия) - выявление ошибок, онлайн-сопоставление с фактической погодой METAR, автоматическое внесение коррективов в прогнозы при резком отклонении фактической погоды от прогноза, подсчёт оправдываемости прогнозов по элементам и в целом;
- система обработки, анализа и отображения авиаметеорологической информации для применения провайдерами метеорологической информации.


Погода в Одессе - сегодня

Время (UTC), дата Ветер
(°,м/с) 
Видим.   Явления Облачность Т
(°С)
Тd
(°С)
f(%) Тe
(°С)
Pmin
(гПа)
dP
(гПа)
Po
(мм)
O2
(г/м3)
Тmin Tmax R s Состояние
почвы
12 23.05.17 170 (Ю) 40000 м    4/4 600 м 
[Sc]
+18.1 +6.6 47 +19  1018.2  -0.3  760  286           
15 23.05.17 180 (Ю) 50000 м    3/3 600 м 
[Sc]
+17.8 +6.2 47 +18  1017.7  -0.5  760  286           
18 23.05.17 260 (З) 40000 м    ясно 
+14.7 +7.6 62 +15  1018.3  0.5  760  289    +18.7       
21 23.05.17 260 (З) 45000 м    ясно 
+12.8 +8.1 73 +13  1019.1  0.8  761  291           
00 24.05.17 270 (З) 35000 м    ясно 
+11.6 +8.1 79 +12  1018.6  -0.5  760  292           
03 24.05.17 тихо ()   40000 м    ясно 
+11.6 +6.7 72 +12  1018.6  760  293           
06 24.05.17 130 (ЮВ) 20000 м    4/0 верхняя 
[Ci fib]
+15.5 +12.4 82 +20  1019.1  0.6  761  288  +11.2         
09 24.05.17 170 (Ю) 28000 м    8/3 600 м верхняя 
[Cu hum|Ci fib]
+17.5 +11 66 +20  1019.5  0.4  761  286           
12 24.05.17 170 (Ю) 25000 м    10/4 600 м верхняя 
[Cu hum|Ci]
+17.3 +12.4 73 +22  1018.8  -0.7  760  286           
15 24.05.17 180 (Ю) 45000 м    8/0 верхняя 
[Ci fib]
+17.4 +9.1 58 +18  1017.5  -1.3  759  286           
18 24.05.17 230 (ЮЗ) 30000 м    8/0 верхняя 
[Ci]
+14.9 +7.1 60 +16  1017.3  -0.2  759  289    +18.1       
21 24.05.17 190 (Ю) 12000 м    4/0 верхняя 
[Ci fib]
+13.4 +11.9 91 +18  1018.2  0.8  760  290           
00 25.05.17 240 (ЮЗ) 6000 м  дымка  4/0 верхняя 
[Ci fib]
+12.1 +10.9 92 +15  1017.2  -1  759  291           
03 25.05.17 170 (Ю) 19000 м    ясно 
+12.6 +11.7 94 +17  1017.1  -0.1  759  290           
06 25.05.17 170 (Ю) 20000 м    3/3 600 м 
[]
+15.7 +13.6 87 +22  1017.6  0.6  759  287  +11.9         
09 25.05.17 170 (Ю) 40000 м    3/3 600 м 
[Cu hum]
+16.7 +13.1 79 +22  1018.2  0.6  760  286           
12 25.05.17 170 (Ю) 29000 м    3/3 600 м 
[Cu hum]
+16.9 +13.7 81 +23  1018.1  -0.1  760  286           
15 25.05.17 170 (Ю) 50000 м    ясно 
+15.9 +12.6 81 +21  1017.3  -0.8  759  287           
18 25.05.17 210 (ЮЗ) 30000 м    4/0 верхняя 
[Ci fib]
+14.4 +12.4 88 +20  1017.2  -0.1  759  288    +17.2       
21 25.05.17 тихо ()   17000 м    ясно 
+12.9 +12.2 96 +17  1017.5  0.2  759  290           
00 26.05.17 тихо ()   30000 м    ясно 
+12.7 +11.4 92 +15  1017.3  -0.2  759  290           
03 26.05.17 тихо ()   9000 м  дымка  8/0 верхняя 
[Ci fib]
+12.1 +11.3 95 +15  1016.8  -0.5  759  291           
06 26.05.17 120 (ЮВ) 26000 м    10/4 1500 м средняя, верхняя 
[Sc|Ac trans|Ci]
+16.6 +14 85 +24  1017.1  0.4  759  285  +12         
09 26.05.17 140 (ЮВ) 30000 м    8/4 600 м средняя, верхняя 
[Cu Sc|Ac trans|Ci fib]
+16.7 +13.5 81 +23  1017  -0.1  759  286           
12 26.05.17 170 (Ю) 50000 м    8/6 600 м верхняя 
[Cu Sc|Ci fib]
+17.2 +12.5 74 +21  1015.8  -1.2  758  285           
Время (UTC), дата Ветер
(°,м/с) 
Видим.   Явления Облачность Т
(°С)
Тd
(°С)
f(%) Тe
(°С)
Pmin
(гПа)
dP
(гПа)
Po
(мм)
O2
(г/м3)
Тmin Tmax R s Состояние
почвы

Для получения пояснительной информации подведите курсор к названию столбца.

ПОГОДА в Одессе - архив

Всё, что Вы хотите узнать о погоде в Одессе - удобно и подробно!

Выберите нужную дату (начиная с 1 января 2015* года) и нажмите кнопку "Найти".
Будут отображены архивные сводки погоды по пункту Одесса, начиная с указанной даты.


Отображать данные в формате CSV (для использования в таблицах Excel)


Внимание! Наш архив погоды предназначен исключительно для личного некоммерческого использования в познавательных целях. Если Вам необходимы официальные справки о состоянии погоды (для производственных, юридических, коммерческих и т.п. целей), обращайтесь в органы Росгидромета.

*Примечание: данная дата относится к архиву по метеостанциям СССР (Россия, СНГ, Балтия).
Архив по метеостанциям Зарубежной Европы и Азии (кроме Китая) хранится 10 дней, по другим регионам земного шара (Китай, Африка, Америка, Австралия, Океания) - 1 день.

Одесса - район местоположения метеостанции


Название, широта, долгота, высота метеостанции:
Одесса (город) 46.4°ш. 30.8°д. 42 м над ур. моря [Украина]

Дополнительная информация

В oтличие oт бoльшинства пoгoдных сайтoв мы публикуем пoдрoбную метеoинфoрмацию в детальнoм прoфессиoнальнoм фoрмате.

Характеристики температуры и влажнoсти вoздуха измеряются на высoте 2 м в тени вдали oт зданий и деревьев.
Скoрoсть ветра измеряется на высoте 10 м (на урoвне рoста челoвека скoрoсть ветра ниже в 1.5-2 раза). Если метеoстанция нахoдится в гoрoде или в лесу, тo скoрoсть ветра занижена на 2-4 м/с пo сравнению с oткрытым местoм. Скoрoсть ветра над акватoриями крупных рек и oзёр, а также на вершинах хoлмoв на 2-5 м/с выше, чем в oбычных услoвиях.
Атмoсфернoе давление в разных тoчках местнoсти мoжет значительнo oтличаться oт давления на метеoстанции, в зависимoсти oт услoвий рельефа (при пoдъёме на 10 м давление пoнижается примернo на 1 мм рт.ст.).